LHA249 KPDX-KPAE

Flight info

Callsign LHA249
Flight time N/A
Altitude 24000
Route BTG
Aircraft A20N/M-SDE1E2FGIJ1RWYZE3/S

Departure

Time N/A
Airport Portland International Airport (KPDX)

Arrival

Time 2026-04-24 19:10
Airport Seattle Paine Field International Airport (KPAE)
Time Latitude Longitude Altitude Speed Heading
2026-04-24 18:54 47.09449 -122.74509 12930 ft 267 kts 37°
2026-04-24 18:55 47.12270 -122.70905 12930 ft 268 kts 37°
2026-04-24 18:55 47.13662 -122.69126 12932 ft 267 kts 37°
2026-04-24 18:55 47.15072 -122.67316 12935 ft 267 kts 37°
2026-04-24 18:56 47.16480 -122.65514 12935 ft 268 kts 38°
2026-04-24 18:56 47.17871 -122.63723 12934 ft 268 kts 38°
2026-04-24 18:56 47.19275 -122.61909 12929 ft 268 kts 38°
2026-04-24 18:56 47.20656 -122.60126 12935 ft 268 kts 37°
2026-04-24 18:57 47.22071 -122.58305 12936 ft 267 kts 38°
2026-04-24 18:57 47.23469 -122.56506 12916 ft 268 kts 38°
2026-04-24 18:57 47.24877 -122.54694 12597 ft 270 kts 38°
2026-04-24 18:57 47.26273 -122.52895 12215 ft 269 kts 38°
2026-04-24 18:58 47.27673 -122.51090 11845 ft 268 kts 38°
2026-04-24 18:58 47.29065 -122.49294 11480 ft 266 kts 38°
2026-04-24 18:58 47.30470 -122.47491 11115 ft 264 kts 38°
2026-04-24 18:58 47.31841 -122.45757 10751 ft 263 kts 38°
2026-04-24 18:59 47.33223 -122.44013 10401 ft 261 kts 38°
2026-04-24 18:59 47.34602 -122.42268 10048 ft 259 kts 38°
2026-04-24 18:59 47.35967 -122.40541 9688 ft 258 kts 38°
2026-04-24 18:59 47.37308 -122.38842 9331 ft 257 kts 38°
2026-04-24 19:00 47.38665 -122.37119 8987 ft 255 kts 38°
2026-04-24 19:00 47.40003 -122.35420 8651 ft 253 kts 38°
2026-04-24 19:00 47.41324 -122.33746 8316 ft 252 kts 39°
2026-04-24 19:00 47.42670 -122.32090 7972 ft 250 kts 33°
2026-04-24 19:01 47.44237 -122.31021 7620 ft 249 kts 15°
2026-04-24 19:01 47.45938 -122.30690 7275 ft 249 kts
2026-04-24 19:01 47.47681 -122.30534 6919 ft 250 kts
2026-04-24 19:01 47.49408 -122.30391 6573 ft 249 kts
2026-04-24 19:02 47.50554 -122.30294 6351 ft 249 kts
2026-04-24 19:02 47.52868 -122.30094 5917 ft 247 kts
2026-04-24 19:02 47.54580 -122.29943 5596 ft 246 kts
2026-04-24 19:02 47.56273 -122.29750 5283 ft 244 kts 12°
2026-04-24 19:03 47.57897 -122.29094 4984 ft 242 kts 19°
2026-04-24 19:03 47.59510 -122.28331 4678 ft 241 kts 14°
2026-04-24 19:03 47.61154 -122.27937 4380 ft 240 kts
2026-04-24 19:03 47.62818 -122.27870 4084 ft 239 kts
2026-04-24 19:04 47.64462 -122.27913 3786 ft 238 kts 360°
2026-04-24 19:04 47.66103 -122.27972 3487 ft 237 kts 360°
2026-04-24 19:04 47.67755 -122.28025 3189 ft 236 kts 360°
2026-04-24 19:04 47.69367 -122.28070 3103 ft 224 kts 360°
2026-04-24 19:05 47.70874 -122.28107 3081 ft 209 kts 360°
2026-04-24 19:05 47.72273 -122.28139 3054 ft 196 kts
2026-04-24 19:05 47.73627 -122.28168 3031 ft 195 kts 360°
2026-04-24 19:05 47.74996 -122.28197 2931 ft 194 kts 360°
2026-04-24 19:06 47.76307 -122.28226 3048 ft 181 kts
2026-04-24 19:06 47.77505 -122.28252 2897 ft 163 kts 360°
2026-04-24 19:06 47.78566 -122.28276 2738 ft 146 kts 360°
2026-04-24 19:06 47.79541 -122.28297 2495 ft 134 kts 360°
2026-04-24 19:07 47.80481 -122.28316 2343 ft 134 kts 359°
2026-04-24 19:07 47.81409 -122.28335 2167 ft 133 kts 359°
2026-04-24 19:07 47.82024 -122.28348 2051 ft 133 kts 359°
2026-04-24 19:07 47.83259 -122.28373 1815 ft 132 kts 359°
2026-04-24 19:08 47.84181 -122.28393 1641 ft 132 kts 359°
2026-04-24 19:08 47.85099 -122.28414 1460 ft 132 kts 358°
2026-04-24 19:08 47.86013 -122.28434 1290 ft 131 kts 359°
2026-04-24 19:08 47.86920 -122.28453 1117 ft 131 kts 359°
2026-04-24 19:09 47.87829 -122.28474 943 ft 130 kts 359°
2026-04-24 19:09 47.88736 -122.28500 767 ft 130 kts 358°
2026-04-24 19:09 47.89645 -122.28535 607 ft 128 kts 359°
2026-04-24 19:09 47.90431 -122.28555 590 ft 79 kts
2026-04-24 19:10 47.90757 -122.28561 586 ft 35 kts
2026-04-24 19:10 47.90902 -122.28498 585 ft 18 kts 109°
2026-04-24 19:10 47.90894 -122.28340 591 ft 14 kts 81°
2026-04-24 19:10 47.90852 -122.28233 594 ft 11 kts 131°
2026-04-24 19:11 47.90827 -122.28136 597 ft 9 kts 107°
2026-04-24 19:11 47.90818 -122.28089 598 ft 0 kts 106°